| time (UTC) | temp F | wind direction | speed knots | gust knots | rain 1hr in | rain 24hr in | rain mn in | humidity % | barometer mb |
| 20260507143013 | 57 | 332 | 3.5 | 7.0 | 0.00 | 0.25 | 0.19 | 70 | 1008.2 |
| 20260507141512 | 55 | 35 | 1.7 | 3.5 | 0.00 | 0.25 | 0.19 | 74 | 1008.4 |
| 20260507140010 | 55 | 65 | 2.6 | 5.2 | 0.00 | 0.25 | 0.19 | 79 | 1008.5 |
| 20260507134509 | 54 | 29 | 1.7 | 4.3 | 0.00 | 0.25 | 0.19 | 80 | 1008.5 |
| 20260507133012 | 53 | 360 | 0.9 | 2.6 | 0.00 | 0.25 | 0.19 | 87 | 1008.5 |
| 20260507131510 | 51 | 205 | 1.7 | 6.1 | 0.00 | 0.25 | 0.19 | 90 | 1008.6 |
| 20260507130026 | 50 | 86 | 0.0 | 3.5 | 0.00 | 0.25 | 0.19 | 92 | 1008.3 |
| 20260507124511 | 50 | 227 | 0.0 | 2.6 | 0.00 | 0.25 | 0.19 | 93 | 1008.5 |
| 20260507123010 | 50 | 284 | 0.9 | 2.6 | 0.00 | 0.25 | 0.19 | 93 | 1008.6 |
| 20260507121511 | 49 | 267 | 0.9 | 2.6 | 0.01 | 0.25 | 0.19 | 93 | 1008.8 |
| 20260507120008 | 49 | 151 | 0.0 | 1.7 | 0.03 | 0.25 | 0.19 | 93 | 1008.7 |
| 20260507114522 | 49 | 153 | 0.0 | 0.9 | 0.04 | 0.25 | 0.19 | 93 | 1008.2 |
| 20260507113014 | 48 | 153 | 0.0 | 1.7 | 0.05 | 0.25 | 0.19 | 92 | 1008.2 |
| 20260507111513 | 48 | 22 | 0.0 | 0.9 | 0.04 | 0.24 | 0.18 | 92 | 1008.7 |
| 20260507110015 | 48 | 219 | 0.0 | 1.7 | 0.02 | 0.22 | 0.16 | 92 | 1008.2 |
| 20260507104505 | 48 | 22 | 0.0 | 1.7 | 0.02 | 0.21 | 0.15 | 92 | 1007.9 |
| 20260507103005 | 48 | 33 | 0.0 | 1.7 | 0.02 | 0.20 | 0.14 | 92 | 1007.7 |
| 20260507101507 | 48 | 16 | 0.0 | 1.7 | 0.02 | 0.20 | 0.14 | 92 | 1008.0 |
| 20260507100007 | 48 | 266 | 0.0 | 0.9 | 0.02 | 0.20 | 0.14 | 92 | 1008.2 |
| 20260507094503 | 49 | 267 | 0.0 | 1.7 | 0.02 | 0.19 | 0.13 | 92 | 1007.7 |
| 20260507093006 | 49 | 20 | 0.0 | 1.7 | 0.02 | 0.18 | 0.12 | 92 | 1007.8 |
| 20260507091513 | 49 | 266 | 0.0 | 1.7 | 0.03 | 0.18 | 0.12 | 91 | 1007.4 |
| 20260507090005 | 49 | 224 | 0.0 | 1.7 | 0.05 | 0.18 | 0.12 | 91 | 1007.7 |
| 20260507084509 | 50 | 360 | 0.0 | 1.7 | 0.08 | 0.17 | 0.11 | 91 | 1007.2 |
| 20260507083008 | 50 | 18 | 0.0 | 1.7 | 0.09 | 0.16 | 0.10 | 91 | 1007.3 |
| 20260507081504 | 50 | 265 | 0.0 | 4.3 | 0.09 | 0.15 | 0.09 | 90 | 1007.3 |
| 20260507080012 | 51 | 32 | 0.9 | 6.1 | 0.07 | 0.13 | 0.07 | 89 | 1007.7 |
| 20260507074513 | 52 | 202 | 0.9 | 5.2 | 0.03 | 0.09 | 0.03 | 88 | 1007.5 |
| 20260507073010 | 54 | 281 | 0.9 | 4.3 | 0.01 | 0.07 | 0.01 | 89 | 1006.9 |
| 20260507071523 | 55 | 236 | 0.0 | 2.6 | 0.00 | 0.06 | 0.00 | 90 | 1005.9 |
| 20260507070009 | 55 | 360 | 0.9 | 2.6 | 0.00 | 0.06 | 0.00 | 91 | 1006.1 |
| 20260507064512 | 56 | 233 | 0.0 | 1.7 | 0.00 | 0.06 | 0.00 | 92 | 1006.1 |
| 20260507063019 | 56 | 139 | 0.0 | 1.7 | 0.00 | 0.06 | 0.00 | 92 | 1006.2 |
| 20260507061508 | 56 | 139 | 0.0 | 0.0 | 0.00 | 0.06 | 0.00 | 92 | 1006.2 |
| 20260507060016 | 56 | 139 | 0.0 | 0.0 | 0.00 | 0.06 | 0.00 | 92 | 1006.3 |
| 20260507054522 | 56 | 138 | 0.0 | 1.7 | 0.00 | 0.06 | 0.00 | 92 | 1006.6 |
| 20260507053012 | 56 | 146 | 0.0 | 1.7 | 0.00 | 0.06 | 0.00 | 92 | 1006.8 |
| 20260507051520 | 56 | 156 | 0.9 | 3.5 | 0.00 | 0.06 | 0.00 | 92 | 1007.0 |
| 20260507050036 | 56 | 171 | 0.9 | 1.7 | 0.00 | 0.06 | 0.00 | 92 | 1007.0 |
| 20260507044516 | 56 | 215 | 0.9 | 4.3 | 0.00 | 0.06 | 0.00 | 92 | 1007.1 |
| 20260507043022 | 56 | 213 | 0.9 | 5.2 | 0.00 | 0.06 | 0.00 | 92 | 1007.1 |
| 20260507041521 | 56 | 183 | 0.9 | 3.5 | 0.00 | 0.06 | 0.00 | 92 | 1006.7 |
| 20260507040019 | 56 | 161 | 0.9 | 4.3 | 0.00 | 0.06 | 0.00 | 92 | 1006.8 |
| 20260507034524 | 56 | 134 | 1.7 | 7.8 | 0.00 | 0.06 | 0.06 | 92 | 1006.7 |
| 20260507033014 | 56 | 163 | 1.7 | 6.1 | 0.00 | 0.06 | 0.06 | 92 | 1007.1 |
| 20260507031522 | 56 | 188 | 1.7 | 7.0 | 0.00 | 0.06 | 0.06 | 92 | 1007.0 |
| 20260507030029 | 56 | 167 | 1.7 | 8.7 | 0.00 | 0.06 | 0.06 | 92 | 1006.9 |
| 20260507024524 | 56 | 188 | 1.7 | 7.0 | 0.00 | 0.06 | 0.06 | 92 | 1006.9 |
| 20260507023026 | 56 | 183 | 2.6 | 7.0 | 0.00 | 0.06 | 0.06 | 92 | 1007.1 |
| 20260507021512 | 56 | 196 | 3.5 | 7.8 | 0.00 | 0.06 | 0.06 | 92 | 1006.7 |
| 20260507020020 | 56 | 170 | 2.6 | 7.0 | 0.00 | 0.06 | 0.06 | 92 | 1007.0 |
| 20260507014515 | 56 | 171 | 0.9 | 9.6 | 0.00 | 0.06 | 0.06 | 92 | 1007.0 |
| 20260507013015 | 56 | 190 | 2.6 | 6.1 | 0.00 | 0.06 | 0.06 | 92 | 1007.2 |
| 20260507011513 | 56 | 179 | 3.5 | 8.7 | 0.00 | 0.06 | 0.06 | 92 | 1007.3 |
| 20260507010020 | 56 | 160 | 3.5 | 7.8 | 0.00 | 0.06 | 0.06 | 92 | 1007.5 |
| 20260507004518 | 56 | 175 | 2.6 | 8.7 | 0.00 | 0.06 | 0.06 | 92 | 1007.5 |
| 20260507003015 | 56 | 194 | 2.6 | 11.3 | 0.00 | 0.06 | 0.06 | 92 | 1007.4 |
| 20260507001518 | 56 | 169 | 2.6 | 8.7 | 0.00 | 0.06 | 0.06 | 92 | 1007.4 |
| 20260507000004 | 55 | 181 | 1.7 | 7.0 | 0.00 | 0.06 | 0.06 | 91 | 1007.5 |
| 20260506234511 | 55 | 169 | 3.5 | 8.7 | 0.00 | 0.06 | 0.06 | 91 | 1007.4 |
| 20260506233023 | 55 | 130 | 3.5 | 11.3 | 0.00 | 0.06 | 0.06 | 91 | 1007.3 |
| 20260506231504 | 55 | 136 | 5.2 | 10.4 | 0.01 | 0.06 | 0.06 | 91 | 1007.4 |
| 20260506230022 | 55 | 127 | 1.7 | 13.0 | 0.01 | 0.06 | 0.06 | 91 | 1007.5 |
| 20260506224521 | 55 | 160 | 4.3 | 12.2 | 0.01 | 0.06 | 0.06 | 90 | 1007.3 |
| 20260506223004 | 56 | 128 | 2.6 | 12.2 | 0.03 | 0.06 | 0.06 | 90 | 1007.3 |
| 20260506221519 | 56 | 201 | 2.6 | 11.3 | 0.02 | 0.05 | 0.05 | 90 | 1007.4 |
| 20260506220006 | 56 | 175 | 2.6 | 12.2 | 0.02 | 0.05 | 0.05 | 90 | 1007.9 |
| 20260506214504 | 56 | 193 | 3.5 | 10.4 | 0.02 | 0.05 | 0.05 | 89 | 1007.7 |
| 20260506213007 | 57 | 165 | 3.5 | 13.9 | 0.00 | 0.03 | 0.03 | 88 | 1007.8 |
| 20260506211503 | 57 | 163 | 4.3 | 16.5 | 0.01 | 0.03 | 0.03 | 88 | 1007.8 |
| 20260506210007 | 57 | 161 | 4.3 | 12.2 | 0.01 | 0.03 | 0.03 | 88 | 1008.0 |
| 20260506204506 | 58 | 208 | 1.7 | 9.6 | 0.01 | 0.03 | 0.03 | 88 | 1008.3 |
| 20260506203009 | 58 | 172 | 4.3 | 11.3 | 0.03 | 0.03 | 0.03 | 88 | 1008.4 |
| 20260506201525 | 58 | 144 | 3.5 | 14.8 | 0.02 | 0.02 | 0.02 | 88 | 1008.5 |
| 20260506200026 | 59 | 206 | 2.6 | 10.4 | 0.02 | 0.02 | 0.02 | 87 | 1008.6 |
| 20260506194512 | 59 | 233 | 3.5 | 16.5 | 0.02 | 0.02 | 0.02 | 86 | 1008.8 |
| 20260506193023 | 61 | 184 | 4.3 | 11.3 | 0.00 | 0.00 | 0.00 | 81 | 1008.8 |
| 20260506191508 | 63 | 209 | 3.5 | 12.2 | 0.00 | 0.00 | 0.00 | 76 | 1008.9 |
| 20260506190025 | 63 | 52 | 5.2 | 13.9 | 0.00 | 0.00 | 0.00 | 73 | 1008.8 |
| 20260506184520 | 64 | 46 | 3.5 | 10.4 | 0.00 | 0.00 | 0.00 | 73 | 1008.9 |
| 20260506183012 | 65 | 37 | 8.7 | 15.6 | 0.00 | 0.00 | 0.00 | 71 | 1008.9 |
| 20260506181519 | 65 | 53 | 0.9 | 15.6 | 0.00 | 0.00 | 0.00 | 70 | 1009.1 |
| 20260506180024 | 66 | 38 | 6.1 | 17.4 | 0.00 | 0.00 | 0.00 | 69 | 1009.2 |
| 20260506174523 | 66 | 32 | 6.1 | 16.5 | 0.00 | 0.00 | 0.00 | 68 | 1009.4 |
| 20260506173024 | 67 | 101 | 7.8 | 16.5 | 0.00 | 0.00 | 0.00 | 67 | 1009.7 |
| 20260506171515 | 67 | 203 | 5.2 | 15.6 | 0.00 | 0.00 | 0.00 | 68 | 1009.7 |
| 20260506170020 | 68 | 209 | 7.0 | 15.6 | 0.00 | 0.00 | 0.00 | 65 | 1009.6 |
| 20260506164525 | 67 | 197 | 7.8 | 18.2 | 0.00 | 0.00 | 0.00 | 67 | 1010.1 |
| 20260506163014 | 66 | 242 | 6.1 | 20.0 | 0.00 | 0.00 | 0.00 | 69 | 1010.1 |
| 20260506161521 | 67 | 171 | 4.3 | 13.9 | 0.00 | 0.00 | 0.00 | 68 | 1010.1 |
| 20260506160028 | 67 | 250 | 4.3 | 12.2 | 0.00 | 0.00 | 0.00 | 67 | 1010.4 |
| 20260506154521 | 67 | 206 | 3.5 | 11.3 | 0.00 | 0.00 | 0.00 | 69 | 1010.6 |
| 20260506153024 | 67 | 208 | 4.3 | 15.6 | 0.00 | 0.00 | 0.00 | 68 | 1010.8 |
| 20260506151530 | 67 | 211 | 7.0 | 12.2 | 0.00 | 0.00 | 0.00 | 67 | 1010.8 |
| 20260506150004 | 66 | 82 | 4.3 | 16.5 | 0.00 | 0.00 | 0.00 | 70 | 1011.0 |
| 20260506144508 | 65 | 91 | 6.1 | 13.9 | 0.00 | 0.00 | 0.00 | 71 | 1010.9 |